STARLINK-34216, 64337

Orbit data source: Space-Track

STARLINK-34216, 64337 is a payload satellite owned by SpaceX/Seattle (US) in LEO that was launched on Tue, 10 Jun 2025 UTC via an FALCON 9 launch vehicle from the Air Force Eastern Test Range (AFETR). Payload-class satellites include a variety of spacecraft equipped with specific instruments for various scientific and technological missions. These include communications satellites like Starlink; space stations such as the ISS; scientific satellites like the Hubble; Earth observation satellites from companies like Planet Labs, Umbra, and HawkEye 360; GPS; miniature CubeSats for education and research; and military/defense satellites.

Loading next visibility...
Identifier
64337, 2025-124W
Orbit
LEO
Country
Flag of USUS
Related business
Manufacturer
SpaceX/Seattle
Mission
Operational Commercial Communications
Bus & Motor
STARLINK V2MO, Unknown motor
Mass
575 kg wet, ~530 kg dry
Launch date (UTC)
2025-06-10 (11 months ago)
Launch vehicle
FALCON 9
Launch site
Air Force Eastern Test Range (AFETR)
Object type
Payload
Rocket body
Debris
Shape & HBR
Box + 2 Pan, 17.7 m
Radar Cross Section
36.964 m², Large (>1 m²)

Expand to show TLE details & history
Last TLE update: 11 hours ago

TLE from 11 hours ago
0 STARLINK-34216
1 64337U 25124W   26129.49352888  .00014922  00000-0  55018-3 0  9994
2 64337  43.0004 137.9666 0001900 278.8338  81.2298 15.27609668 51087
Epoch: 2026-05-09T11:50Z
TLE epoch observation values (Epoch: 2026-05-09T11:50:40.895Z)
Latitude
-0.00004°
Longitude
92.98599°
Altitude
482.537 km
Speed
7.626 km/s
True Right ascension
09h 11m 51s
True Declination
0° 00' 00"
Sunlit
Object was in daylight at epoch
Visualization orbit readout
Latitude
Unknown
Longitude
Unknown
Altitude
Unknown
Speed
Unknown
Apparent Right ascension
Unknown
Apparent Declination
Unknown
Sunlit
N/A
Visualization observer readout
Local Sidereal Time
07:20:16
Azimuth
Unknown
Elevation
Unknown
Doppler factor
Unknown
Orbital elements
Apogee altitude
486.209 km
Perigee altitude
483.601 km
Semi-major axis
6,863.042 km
Eccentricity
0.00019
Inclination
43.0004°
RAAN
137.9666°
Arg. of periapsis
278.8338°
True anomaly
81.25132°
Mean anomaly
81.2298°
Eccentric anomaly
81.24056°
Mean motion
3.8174 °/min
Orbital period
94.3 mins
BSTAR
0.00055018
Loading maneuver chart data...
Computing Atmospheric mass density...
Loading historical data...
Loading historical data...
Loading historical data...
Loading historical data...
Loading historical data...
Loading historical data...
Loading historical data...

Documentation

Showing up to 5 results
|